Hourly Weather Kiyaukovo

Today, 23 October, Friday

Time Temperature Precipitation Wind Pressure Humidity
00:00 -2°C° 0.1 mm 3 mps 749 mmHg 86%
01:00 -2°C° 0.1 mm 3 mps 749 mmHg 85%
02:00 -4°C° 0.1 mm 3 mps 749 mmHg 87%
03:00 -3°C° 0.1 mm 2 mps 750 mmHg 88%
04:00 -4°C° 0 mm 3 mps 750 mmHg 89%
05:00 -4°C° 0.1 mm 3 mps 750 mmHg 89%
06:00 -3°C° 0.1 mm 2 mps 750 mmHg 89%
07:00 -3°C° 0.1 mm 2 mps 750 mmHg 89%
08:00 -3°C° 0 mm 2 mps 751 mmHg 86%
09:00 -2°C° 0 mm 2 mps 751 mmHg 82%
10:00 -1°C° 0 mm 2 mps 751 mmHg 78%
11:00 -1°C° 0 mm 2 mps 751 mmHg 73%
12:00 +1°C° 0 mm 2 mps 751 mmHg 69%
13:00 +1°C° 0 mm 2 mps 751 mmHg 65%
14:00 +1°C° 0 mm 2 mps 751 mmHg 65%
15:00 +1°C° 0 mm 2 mps 750 mmHg 65%
16:00 +1°C° 0 mm 2 mps 750 mmHg 65%
17:00 0°C° 0 mm 3 mps 750 mmHg 68%
18:00 0°C° 0 mm 3 mps 750 mmHg 70%
19:00 -1°C° 0 mm 3 mps 750 mmHg 73%
20:00 -2°C° 0.1 mm 4 mps 749 mmHg 80%
21:00 -2°C° 0.1 mm 4 mps 749 mmHg 86%
22:00 -2°C° 0.1 mm 5 mps 749 mmHg 93%
23:00 -2°C° 0.4 mm 5 mps 748 mmHg 94%

Tomorrow, 24 October, Saturday

Time Temperature Precipitation Wind Pressure Humidity
00:00 -2°C° 0.4 mm 6 mps 747 mmHg 94%
01:00 -2°C° 0.4 mm 6 mps 746 mmHg 95%
02:00 -1°C° 0.3 mm 5 mps 746 mmHg 93%
03:00 0°C° 0.3 mm 5 mps 745 mmHg 91%
04:00 0°C° 0.3 mm 5 mps 745 mmHg 89%
05:00 +1°C° 0.3 mm 5 mps 744 mmHg 91%
06:00 +2°C° 0.3 mm 5 mps 743 mmHg 92%
07:00 +2°C° 0.3 mm 5 mps 742 mmHg 93%
08:00 +3°C° 0.9 mm 5 mps 742 mmHg 94%
09:00 +3°C° 0.9 mm 6 mps 741 mmHg 94%
10:00 +4°C° 0.9 mm 6 mps 741 mmHg 95%
11:00 +4°C° 1 mm 6 mps 740 mmHg 95%
12:00 +5°C° 1 mm 6 mps 740 mmHg 95%
13:00 +7°C° 1 mm 5 mps 740 mmHg 94%
14:00 +7°C° 0.2 mm 5 mps 740 mmHg 94%
15:00 +7°C° 0.2 mm 5 mps 740 mmHg 95%
16:00 +7°C° 0.2 mm 4 mps 740 mmHg 95%
17:00 +7°C° 0.4 mm 4 mps 740 mmHg 95%
18:00 +8°C° 0.4 mm 4 mps 741 mmHg 95%
19:00 +8°C° 0.4 mm 4 mps 741 mmHg 95%
20:00 +7°C° 0.2 mm 4 mps 741 mmHg 95%
21:00 +8°C° 0.2 mm 3 mps 742 mmHg 95%
22:00 +8°C° 0.2 mm 3 mps 742 mmHg 95%
23:00 +8°C° 0.1 mm 3 mps 742 mmHg 95%

Day after tomorrow, 25 October, Sunday

Time Temperature Precipitation Wind Pressure Humidity
00:00 +7°C° 0.1 mm 3 mps 742 mmHg 94%
01:00 +7°C° 0.1 mm 2 mps 742 mmHg 93%
02:00 +7°C° 0 mm 2 mps 743 mmHg 92%
03:00 +7°C° 0 mm 2 mps 743 mmHg 91%
04:00 +7°C° 0 mm 2 mps 743 mmHg 90%
05:00 +7°C° 0 mm 2 mps 743 mmHg 90%
06:00 +7°C° 0 mm 2 mps 743 mmHg 90%
07:00 +7°C° 0 mm 2 mps 744 mmHg 90%
08:00 +7°C° 0 mm 2 mps 744 mmHg 88%
09:00 +7°C° 0 mm 2 mps 744 mmHg 86%
10:00 +8°C° 0 mm 2 mps 744 mmHg 84%
11:00 +9°C° 0 mm 2 mps 744 mmHg 82%
12:00 +9°C° 0 mm 2 mps 743 mmHg 79%
13:00 +10°C° 0 mm 2 mps 743 mmHg 77%
14:00 +9°C° 0 mm 2 mps 743 mmHg 78%
15:00 +9°C° 0 mm 2 mps 743 mmHg 80%
16:00 +9°C° 0 mm 2 mps 743 mmHg 82%
17:00 +9°C° 0.2 mm 2 mps 742 mmHg 85%
18:00 +9°C° 0.2 mm 1 mps 742 mmHg 88%
19:00 +9°C° 0.2 mm 1 mps 741 mmHg 91%
20:00 +9°C° 0.6 mm 1 mps 741 mmHg 92%
21:00 +7°C° 0.6 mm 0 mps 740 mmHg 93%
22:00 +7°C° 0.6 mm 0 mps 739 mmHg 95%
23:00 +8°C° 0.5 mm 1 mps 739 mmHg 95%

, 26 October, Monday

Time Temperature Precipitation Wind Pressure Humidity
00:00 +7°C° 0.5 mm 2 mps 738 mmHg 95%
01:00 +7°C° 0.5 mm 3 mps 738 mmHg 96%
02:00 +5°C° 0.8 mm 3 mps 738 mmHg 95%
03:00 +5°C° 0.8 mm 4 mps 738 mmHg 93%
04:00 +5°C° 0.8 mm 4 mps 738 mmHg 92%
05:00 +3°C° 0.2 mm 5 mps 738 mmHg 91%
06:00 +3°C° 0.2 mm 5 mps 739 mmHg 90%
07:00 +3°C° 0.2 mm 5 mps 739 mmHg 88%
08:00 +2°C° 0 mm 5 mps 740 mmHg 85%
09:00 +2°C° 0 mm 6 mps 740 mmHg 81%
10:00 +1°C° 0 mm 6 mps 741 mmHg 77%
11:00 +1°C° 0.1 mm 6 mps 741 mmHg 76%
12:00 +1°C° 0.1 mm 6 mps 741 mmHg 74%
13:00 +1°C° 0.1 mm 6 mps 741 mmHg 73%
14:00 +1°C° 0.1 mm 6 mps 742 mmHg 74%
15:00 -1°C° 0.1 mm 6 mps 742 mmHg 76%
16:00 -1°C° 0.1 mm 6 mps 742 mmHg 77%
17:00 -2°C° 0.2 mm 7 mps 743 mmHg 78%
18:00 -2°C° 0.2 mm 7 mps 743 mmHg 78%
19:00 -2°C° 0.2 mm 7 mps 744 mmHg 79%
20:00 -3°C° 0.1 mm 7 mps 744 mmHg 79%
21:00 -3°C° 0.1 mm 7 mps 745 mmHg 78%
22:00 -3°C° 0.1 mm 7 mps 745 mmHg 78%
23:00 -3°C° 0.1 mm 7 mps 746 mmHg 79%

26 October, Monday

Time Temperature Precipitation Wind Pressure Humidity
00:00 +7°C° 0.5 mm 2 mps 738 mmHg 95%
01:00 +7°C° 0.5 mm 3 mps 738 mmHg 96%
02:00 +5°C° 0.8 mm 3 mps 738 mmHg 95%
03:00 +5°C° 0.8 mm 4 mps 738 mmHg 93%
04:00 +5°C° 0.8 mm 4 mps 738 mmHg 92%
05:00 +3°C° 0.2 mm 5 mps 738 mmHg 91%
06:00 +3°C° 0.2 mm 5 mps 739 mmHg 90%
07:00 +3°C° 0.2 mm 5 mps 739 mmHg 88%
08:00 +2°C° 0 mm 5 mps 740 mmHg 85%
09:00 +2°C° 0 mm 6 mps 740 mmHg 81%
10:00 +1°C° 0 mm 6 mps 741 mmHg 77%
11:00 +1°C° 0.1 mm 6 mps 741 mmHg 76%
12:00 +1°C° 0.1 mm 6 mps 741 mmHg 74%
13:00 +1°C° 0.1 mm 6 mps 741 mmHg 73%
14:00 +1°C° 0.1 mm 6 mps 742 mmHg 74%
15:00 -1°C° 0.1 mm 6 mps 742 mmHg 76%
16:00 -1°C° 0.1 mm 6 mps 742 mmHg 77%
17:00 -2°C° 0.2 mm 7 mps 743 mmHg 78%
18:00 -2°C° 0.2 mm 7 mps 743 mmHg 78%
19:00 -2°C° 0.2 mm 7 mps 744 mmHg 79%
20:00 -3°C° 0.1 mm 7 mps 744 mmHg 79%
21:00 -3°C° 0.1 mm 7 mps 745 mmHg 78%
22:00 -3°C° 0.1 mm 7 mps 745 mmHg 78%
23:00 -3°C° 0.1 mm 7 mps 746 mmHg 79%

27 October, Tuesday

Time Temperature Precipitation Wind Pressure Humidity
00:00 -3°C° 0.1 mm 7 mps 746 mmHg 81%
01:00 -3°C° 0.1 mm 7 mps 747 mmHg 82%
02:00 -4°C° 0.1 mm 7 mps 747 mmHg 84%
03:00 -4°C° 0.1 mm 7 mps 748 mmHg 85%
04:00 -4°C° 0.1 mm 7 mps 748 mmHg 87%
05:00 -4°C° 0.1 mm 7 mps 749 mmHg 86%
06:00 -4°C° 0.1 mm 7 mps 749 mmHg 86%
07:00 -4°C° 0.1 mm 7 mps 750 mmHg 85%
08:00 -4°C° 0.1 mm 7 mps 750 mmHg 83%
09:00 -3°C° 0.1 mm 7 mps 750 mmHg 82%
10:00 -3°C° 0.1 mm 7 mps 751 mmHg 80%
11:00 -3°C° 0 mm 7 mps 751 mmHg 79%
12:00 -3°C° 0 mm 7 mps 752 mmHg 79%
13:00 -2°C° 0 mm 7 mps 752 mmHg 78%
14:00 -3°C° 0 mm 6 mps 753 mmHg 78%
15:00 -3°C° 0 mm 6 mps 754 mmHg 78%
16:00 -3°C° 0 mm 6 mps 754 mmHg 78%
17:00 -2°C° 0 mm 5 mps 755 mmHg 79%
18:00 -2°C° 0 mm 5 mps 755 mmHg 79%
19:00 -2°C° 0 mm 5 mps 756 mmHg 80%
20:00 -3°C° 0 mm 4 mps 756 mmHg 82%
21:00 -3°C° 0 mm 4 mps 757 mmHg 85%
22:00 -4°C° 0 mm 3 mps 757 mmHg 87%
23:00 -4°C° 0 mm 3 mps 757 mmHg 88%

28 October, Wednesday

Time Temperature Precipitation Wind Pressure Humidity
00:00 -3°C° 0 mm 2 mps 757 mmHg 89%
01:00 -3°C° 0 mm 2 mps 758 mmHg 90%
02:00 -3°C° 0 mm 2 mps 758 mmHg 91%
03:00 -3°C° 0 mm 2 mps 758 mmHg 91%
04:00 -1°C° 0 mm 1 mps 758 mmHg 91%
05:00 -1°C° 0 mm 1 mps 759 mmHg 91%
06:00 -1°C° 0 mm 1 mps 759 mmHg 90%
07:00 -1°C° 0 mm 1 mps 760 mmHg 90%
08:00 0°C° 0 mm 1 mps 760 mmHg 85%
09:00 +1°C° 0 mm 1 mps 760 mmHg 81%
10:00 +1°C° 0 mm 1 mps 760 mmHg 76%
11:00 +2°C° 0 mm 1 mps 760 mmHg 73%
12:00 +3°C° 0 mm 1 mps 760 mmHg 69%
13:00 +4°C° 0 mm 1 mps 760 mmHg 66%
14:00 +3°C° 0 mm 1 mps 760 mmHg 69%
15:00 +2°C° 0 mm 0 mps 760 mmHg 71%
16:00 +2°C° 0 mm 0 mps 760 mmHg 73%
17:00 +1°C° 0 mm 0 mps 760 mmHg 75%
18:00 +1°C° 0 mm 1 mps 761 mmHg 77%
19:00 +1°C° 0 mm 1 mps 761 mmHg 79%
20:00 +1°C° 0 mm 1 mps 761 mmHg 80%
21:00 +1°C° 0 mm 1 mps 761 mmHg 80%
22:00 +1°C° 0 mm 1 mps 761 mmHg 81%
23:00 +1°C° 0 mm 1 mps 761 mmHg 81%
Show more